Tracking 29777 objects as of 7-Oct-2024
HD Live streaming from Space Station
objects crossing your sky now

COSMOS 839 DEB

Track COSMOS 839 DEB now!
10-day predictions


NORAD ID: 12543
Int'l Code: 1976-067BA
Perigee: 996.5 km
Apogee: 1,999.4 km
Inclination: 66.0 °
Period: 115.8 minutes
Semi major axis: 7868 km
RCS: 0.007 m2 (small)
Launch date: July 8, 1976
Source: Commonwealth of Independent States (former USSR) (CIS)
Launch site: PLESETSK MISSILE AND SPACE COMPLEX (PKMTR)

Note: This is SATELLITE DEBRIS
Your satellite tracking list
Your tracking list is empty




NASA's NSSDC Master Catalog

Two Line Element Set (TLE):
1 12543U 76067BA  24280.42160062  .00001911  00000-0  68338-2 0  9990
2 12543  66.0307 327.4751 0637288 336.6539  31.6315 12.43733241180904
Source of the keplerian elements: AFSPC